Ketchikan, AK

7:25 AM AKST on November 15, 2018 (GMT -0900)
Ketchikan International

Weather History for PAKT - September, 2017

Change the Weather History Date:

Sunday, September 10, 2017

  Actual Average Record
Temperature  
Mean Temperature 53 °F -  
Max Temperature 55 °F 60 °F 75 °F (1950)
Min Temperature 51 °F 47 °F 36 °F (1970)
Degree Days  
Heating Degree Days 12    
Growing Degree Days 3 (Base 50)    
Moisture  
Dew Point 52 °F    
Average Humidity 94    
Maximum Humidity 100    
Minimum Humidity 89    
Precipitation  
Precipitation 1.21 in - - ()
Sea Level Pressure  
Sea Level Pressure 29.86 in    
Wind  
Wind Speed 6 mph (SSE)    
Max Wind Speed 14 mph    
Max Gust Speed 23 mph    
Visibility 8 miles    
Events Rain    
Averages and records for this station are not official NWS values.
T = Trace of Precipitation, MM = Missing Value Source: NWS Daily Summary

Daily Weather History Graph

Daily Weather History Graph

Search for Another Location

Airport or City:

Astronomy

Sep. 10, 2017 Rise Set
Actual Time 6:10 AM AKDT 7:15 PM AKDT
Civil Twilight 5:32 AM AKDT 7:52 PM AKDT
Nautical Twilight 4:47 AM AKDT 8:38 PM AKDT
Astronomical Twilight 3:56 AM AKDT 9:28 PM AKDT
Moon 9:30 PM AKDT (9/10) 11:34 AM AKDT (9/10)
Length of Visible Light 14h 20m
Length of Day
13h 05m
Waning Gibbous, 77% of the Moon is Illuminated
Sep 10
Waning Gibbous
Sep 12
Last Quarter
Sep 19
New
Sep 27
First Quarter
Oct 5
Full

Hourly Weather History & Observations

Time (AKDT) Temp. Dew Point Humidity Pressure Visibility Wind Dir Wind Speed Gust Speed Precip Events Conditions
12:12 AM 54.0 °F 53.1 °F 97% 29.97 in 6.0 mi SE 4.6 mph - 0.02 in Rain Light Rain
12:37 AM 54.0 °F 53.1 °F 97% 29.97 in 10.0 mi SSE 6.9 mph - 0.02 in   Overcast
12:44 AM 54.0 °F 53.1 °F 97% 29.97 in 10.0 mi SE 5.8 mph - 0.02 in Rain Light Rain
12:53 AM 54.0 °F 53.1 °F 97% 29.97 in 10.0 mi SSE 6.9 mph - 0.02 in Rain Light Rain
1:05 AM 55.0 °F 53.1 °F 93% 29.97 in 10.0 mi SE 8.1 mph - 0.00 in Rain Light Rain
1:44 AM 55.0 °F 53.1 °F 93% 29.98 in 10.0 mi SE 6.9 mph - 0.01 in Rain Light Rain
1:53 AM 54.0 °F 52.0 °F 93% 29.99 in 10.0 mi SSE 6.9 mph - 0.01 in Rain Light Rain
2:08 AM 55.0 °F 52.0 °F 89% 29.98 in 10.0 mi SSE 6.9 mph - 0.00 in Rain Light Rain
2:19 AM 54.0 °F 53.1 °F 97% 29.99 in 10.0 mi South 5.8 mph - 0.00 in Rain Light Rain
2:53 AM 55.0 °F 53.1 °F 93% 30.00 in 10.0 mi SE 6.9 mph - 0.01 in   Overcast
3:14 AM 55.0 °F 53.1 °F 93% 29.99 in 2.5 mi SE 5.8 mph - 0.08 in Rain Heavy Rain
3:23 AM 54.0 °F 53.1 °F 97% 30.00 in 4.0 mi SE 4.6 mph - 0.09 in Rain Light Rain
3:32 AM 55.0 °F 53.1 °F 93% 29.99 in 10.0 mi ESE 9.2 mph - 0.09 in Rain Light Rain
3:49 AM 55.4 °F 53.6 °F 94% 29.99 in 10.0 mi SE 8.1 mph - 0.10 in   Overcast
3:53 AM 54.0 °F 53.1 °F 97% 30.00 in 10.0 mi SE 8.1 mph - 0.10 in   Overcast
4:39 AM 54.0 °F 52.0 °F 93% 29.99 in 10.0 mi SSE 9.2 mph - N/A   Overcast
4:53 AM 54.0 °F 52.0 °F 93% 30.00 in 10.0 mi SE 8.1 mph - N/A   Overcast
5:53 AM 54.0 °F 52.0 °F 93% 30.00 in 10.0 mi SSE 8.1 mph - N/A   Overcast
6:00 AM 53.6 °F 51.8 °F 94% 29.99 in 10.0 mi SSE 6.9 mph - N/A   Overcast
6:53 AM 53.6 °F 51.8 °F 94% 29.99 in 10.0 mi SSE 4.6 mph - N/A   Overcast
7:53 AM 55.4 °F 53.6 °F 94% 29.99 in 10.0 mi SSE 3.5 mph - N/A   Overcast
8:53 AM 55.4 °F 53.6 °F 94% 29.97 in 10.0 mi ESE 3.5 mph - N/A   Overcast
9:51 AM 55.4 °F 53.6 °F 94% 29.96 in 10.0 mi SSE 6.9 mph - N/A Rain Light Rain
9:53 AM 55.4 °F 53.6 °F 94% 29.96 in 10.0 mi SSE 6.9 mph - N/A Rain Light Rain
10:53 AM 55.0 °F 53.1 °F 93% 29.95 in 3.0 mi SSE 9.2 mph - 0.15 in Rain Heavy Rain
11:53 AM 54.0 °F 52.0 °F 93% 29.91 in 3.0 mi SE 13.8 mph 23.0 mph 0.21 in Rain Heavy Rain
12:53 PM 54.0 °F 51.1 °F 90% 29.88 in 4.0 mi SSE 9.2 mph - 0.07 in Rain Rain
1:53 PM 54.0 °F 52.0 °F 93% 29.82 in 7.0 mi NW 4.6 mph - 0.07 in Rain Light Rain
2:53 PM 54.0 °F 52.0 °F 93% 29.76 in 10.0 mi Calm Calm - 0.03 in Rain Light Rain
3:53 PM 54.0 °F 51.1 °F 90% 29.72 in 5.0 mi ESE 3.5 mph - 0.05 in Rain Light Rain
4:53 PM 52.0 °F 50.0 °F 93% 29.68 in 5.0 mi Calm Calm - 0.04 in Rain Light Rain
5:53 PM 51.1 °F 50.0 °F 96% 29.66 in 3.0 mi WNW 8.1 mph - 0.05 in Rain Rain
6:53 PM 51.1 °F 50.0 °F 96% 29.66 in 3.0 mi WNW 11.5 mph - 0.13 in Rain Rain
7:53 PM 51.1 °F 50.0 °F 96% 29.63 in 3.0 mi NW 8.1 mph - 0.15 in Rain Light Rain
8:00 PM 51.1 °F 50.0 °F 96% 29.63 in 6.0 mi NW 8.1 mph - 0.00 in Rain Light Rain
8:53 PM 51.1 °F 50.0 °F 96% 29.62 in 4.0 mi NW 8.1 mph - 0.05 in Rain Light Rain
9:53 PM 51.1 °F 50.0 °F 96% 29.65 in 9.0 mi NW 4.6 mph - 0.06 in Rain Light Rain
9:58 PM 52.0 °F 51.1 °F 97% 29.65 in 10.0 mi NW 4.6 mph - 0.00 in Rain Light Rain
10:19 PM 52.0 °F 51.1 °F 97% 29.66 in 10.0 mi NW 6.9 mph - 0.00 in Rain Light Rain
10:36 PM 52.0 °F 50.0 °F 93% 29.67 in 10.0 mi NW 5.8 mph - 0.01 in   Overcast
10:53 PM 52.0 °F 50.0 °F 93% 29.68 in 10.0 mi NNW 3.5 mph - 0.01 in   Overcast
11:42 PM 52.0 °F 50.0 °F 93% 29.69 in 10.0 mi NNW 3.5 mph - N/A   Overcast
11:49 PM 51.8 °F 51.8 °F 100% 29.70 in 10.0 mi NW 3.5 mph - N/A   Overcast
11:53 PM 52.0 °F 50.0 °F 93% 29.70 in 10.0 mi NNW 3.5 mph - N/A   Overcast